Helicity
193 192 176 182 178 153 159 181 198 172 142 164 186 177 194 200 178 204 195 157 149 150 155 242 202 141 112 129 132 128 109 123 103 112 80 87 80 79
193 183 155 172 174 177 175 180 202 171 141 183 171 182 192 192 180 209 190 171 154 155 254 304 231 165 130 135 127 114 99 115 121 94 87 88 86 76
188 166 144 158 165 177 194 197 207 210 169 152 173 184 208 223 214 201 199 194 185 196 268 301 208 161 149 126 116 112 102 111 115 87 85 87 80 87
182 172 141 169 160 171 202 179 197 219 224 198 197 226 197 190 233 240 226 214 217 225 280 273 183 156 122 118 111 102 98 130 96 86 99 84 86 81
170 169 143 170 154 195 180 197 226 254 250 244 223 251 252 253 293 287 281 287 254 233 213 166 125 112 108 113 103 108 106 103 94 103 84 80 71 72
166 173 174 183 151 183 193 195 246 262 286 287 273 287 302 279 326 333 314 316 312 222 230 177 135 123 103 100 102 101 103 90 102 92 79 77 67 71
184 166 175 170 153 188 232 231 273 279 322 332 344 357 338 337 313 331 314 337 275 224 205 219 216 183 154 115 127 110 91 98 95 92 84 89 78 61
167 146 140 127 125 127 134 163 228 295 294 379 386 370 365 380 343 329 339 339 232 189 242 224 222 184 171 153 113 94 101 88 92 76 75 78 70 64
146 146 130 140 140 151 141 224 193 219 247 280 300 331 360 296 318 289 321 269 225 245 258 220 223 173 155 132 106 107 103 96 100 83 76 79 85 78
177 138 134 164 190 170 157 218 225 196 211 240 241 224 208 201 212 272 272 257 316 258 222 198 185 159 165 152 143 124 103 125 115 100 96 90 81 77
80 64 66 93 81 99 116 96 180 189 203 168 173 153 136 143 197 293 273 278 256 208 227 235 188 194 165 167 155 115 194 160 125 98 92 92 96 89
65 74 61 77 78 65 92 145 165 188 222 233 259 251 188 144 161 188 256 256 266 210 202 232 199 194 176 172 174 171 151 131 126 104 101 105 98 110
74 76 73 65 69 70 127 148 135 222 221 291 289 279 312 326 264 281 264 252 267 241 179 224 190 198 196 176 161 154 131 131 91 95 106 107 99 101
97 101 100 75 85 98 130 123 134 225 261 274 298 292 277 285 315 303 273 270 260 199 210 232 191 195 201 182 184 173 138 119 116 108 108 80 89 98
86 85 82 77 91 135 133 101 152 213 251 260 272 286 280 307 325 344 328 339 331 282 237 205 194 200 193 190 187 179 166 138 134 142 108 90 114 143
99 98 92 92 125 165 145 139 181 182 222 253 297 325 316 302 285 252 263 255 272 277 241 216 201 199 196 185 186 176 155 148 132 116 97 87 106 145
128 138 135 179 203 194 198 231 196 191 238 281 305 289 279 272 242 212 239 241 232 232 219 211 206 187 176 188 180 159 154 132 112 103 89 80 104 167
143 140 150 166 183 201 215 230 188 171 218 257 249 248 261 268 263 233 234 218 233 226 225 199 185 193 198 167 128 154 139 123 103 100 96 93 103 168
124 137 161 171 182 187 195 200 210 205 203 207 229 253 261 250 229 211 228 241 236 226 211 189 192 193 209 188 143 98 140 121 93 100 115 126 143 178
153 144 140 152 166 164 164 197 219 216 184 202 232 244 255 256 227 201 193 212 231 249 238 211 198 186 182 155 150 133 79 93 108 97 119 97 104 70
145 154 151 165 173 173 182 203 209 209 194 203 224 247 269 253 212 188 187 198 234 239 221 203 161 138 136 138 150 119 133 64 50 81 104 79 91 110
158 160 180 172 176 188 206 215 220 217 230 236 258 273 280 250 224 205 208 237 239 235 216 185 167 145 135 136 129 112 99 114 79 28 3 7 114 69
167 147 168 182 192 199 213 233 248 273 263 268 290 296 285 267 229 223 236 239 242 229 197 175 151 141 124 116 95 91 78 88 81 67 115 19 26 -8
Wind_Speed
63 60 61 57 51 48 46 40 42 48 48 46 44 34 31 28 26 24 23 23 23 24 23 27 35 37 33 37 41 44 45 48 48 50 52 55 56 56
66 65 64 62 57 51 49 47 46 48 54 42 40 37 29 29 27 25 25 24 25 26 24 31 35 37 34 39 41 43 45 46 49 51 53 55 56 57
65 69 68 64 62 60 55 52 50 50 56 50 45 38 35 31 29 27 27 28 28 26 29 38 37 35 35 38 40 43 43 47 49 51 53 54 54 55
66 71 72 65 65 64 59 58 55 52 54 55 47 43 42 36 34 34 34 34 33 30 35 37 33 33 38 43 44 42 44 47 49 52 53 53 52 56
60 68 72 68 68 64 64 60 56 54 54 54 52 48 46 39 39 39 40 40 37 37 38 33 33 38 40 43 43 45 46 48 51 54 52 51 53 59
58 61 66 67 71 66 64 64 58 57 57 58 57 55 52 49 45 44 46 48 49 44 42 36 37 40 40 42 43 45 46 47 49 52 50 51 54 60
62 60 64 69 67 66 65 67 62 61 63 63 63 61 55 53 51 48 48 43 44 37 35 39 40 40 42 40 44 44 44 46 48 50 47 51 57 62
58 59 61 62 65 67 66 64 63 58 61 66 65 66 65 60 48 45 43 44 46 35 37 42 40 42 41 44 42 43 43 45 49 50 47 54 59 62
67 59 57 51 51 51 55 62 62 60 53 51 53 51 44 41 39 41 44 41 42 38 33 41 38 43 43 39 40 42 41 46 47 48 52 56 61 65
49 45 48 51 48 51 48 47 48 46 43 42 41 46 45 45 44 40 35 31 39 36 35 44 38 43 41 43 43 42 45 42 46 50 55 61 64 67
47 45 38 44 43 42 46 46 42 44 48 51 48 49 45 38 31 29 30 32 42 38 33 40 42 44 46 47 44 41 38 42 46 56 60 63 66 69
36 41 44 40 37 47 51 49 48 48 43 46 46 42 41 36 29 31 28 30 34 39 36 36 42 45 51 43 38 39 40 43 55 59 61 63 70 69
39 43 44 42 42 37 31 35 38 35 31 33 31 30 27 25 27 27 26 24 29 41 35 35 42 41 44 47 44 43 45 49 57 58 60 67 70 72
42 42 43 39 37 29 31 31 22 22 25 24 23 25 24 24 25 24 25 26 35 37 26 32 40 39 43 50 53 49 49 57 53 61 62 67 69 67
38 34 31 30 30 22 28 24 20 24 24 25 25 24 23 20 20 22 25 28 31 33 33 34 35 35 42 49 54 54 60 56 58 58 68 69 69 67
37 37 35 31 26 23 26 19 26 27 25 24 23 22 20 21 22 26 29 29 32 35 35 34 34 38 46 49 50 56 56 57 57 65 67 67 64 62
37 36 36 32 30 29 31 28 27 26 25 24 22 21 21 22 26 26 26 27 37 34 37 36 39 42 44 46 54 54 55 56 60 65 69 72 67 65
39 40 37 33 31 30 29 30 29 30 29 23 20 19 21 25 25 25 24 31 32 34 38 40 44 48 51 49 43 52 54 57 60 63 63 68 73 72
43 40 39 38 37 31 29 30 32 29 25 22 20 19 17 18 18 19 21 24 28 31 36 39 44 50 57 62 55 45 52 58 61 63 61 62 68 72
47 45 41 36 34 33 31 32 28 26 23 20 19 18 16 15 16 18 20 23 27 33 36 39 42 46 52 55 57 50 47 56 58 62 65 64 61 61
51 50 45 42 36 34 33 31 29 26 22 20 21 20 19 17 19 20 22 25 29 34 38 42 43 41 44 47 52 52 53 46 49 56 59 64 66 65
53 50 49 42 37 35 33 32 32 31 29 26 23 21 19 19 21 20 21 24 29 33 38 40 41 43 44 46 52 52 54 53 55 52 50 46 54 64
52 53 52 44 40 39 38 39 36 33 31 29 25 24 20 20 20 20 21 24 28 33 36 39 38 39 42 45 49 52 53 56 57 60 57 48 49 48
Wind_Direction
254 255 256 257 262 265 268 270 276 277 275 279 284 280 280 281 283 289 296 298 301 305 307 314 318 323 329 331 331 335 337 339 341 341 340 339 338 338
255 255 256 258 257 264 267 269 275 280 283 281 281 293 283 285 285 288 294 298 300 304 311 314 315 320 321 326 328 331 333 337 337 337 338 337 336 336
254 255 257 258 259 261 266 269 272 278 282 288 289 291 289 286 288 291 296 298 302 300 308 311 312 316 317 321 326 329 332 334 334 335 336 335 335 336
254 255 257 259 259 261 264 266 270 274 280 284 289 289 291 290 290 290 295 301 302 301 307 306 308 313 315 318 321 326 330 331 332 333 333 334 334 333
253 256 257 258 259 262 263 266 269 272 279 284 287 292 294 292 292 293 294 299 302 306 303 302 308 310 313 316 320 322 326 328 330 331 331 331 331 330
255 257 258 258 260 262 263 266 270 272 276 281 284 288 290 293 289 290 293 298 300 301 296 299 306 311 312 314 319 321 324 327 330 330 330 330 331 329
258 259 260 261 262 263 265 267 270 273 275 278 281 285 286 290 284 292 294 298 301 298 293 299 305 309 312 312 317 321 322 326 328 329 329 330 330 328
260 262 262 264 266 266 266 267 269 271 274 277 280 283 284 286 286 288 291 297 299 296 296 300 305 308 312 314 315 319 322 324 326 327 328 328 329 329
263 264 267 269 269 270 270 272 273 273 278 276 277 283 285 282 285 286 288 290 297 309 305 304 307 307 313 317 317 319 321 323 326 327 327 328 329 328
269 270 269 273 272 275 272 272 275 276 276 278 281 285 290 288 287 289 286 293 307 311 310 309 318 314 319 318 320 321 322 325 327 328 329 328 328 328
272 273 277 277 276 276 276 274 280 279 280 278 287 289 292 294 291 296 290 290 301 305 310 312 316 317 319 319 321 322 327 328 330 329 328 329 329 329
286 283 283 288 289 280 277 277 280 279 281 283 290 293 293 291 290 290 289 290 302 308 311 312 317 320 320 324 325 327 328 328 328 329 329 329 328 329
292 289 291 293 293 292 290 287 288 284 287 290 297 301 302 303 303 303 300 295 301 311 320 319 320 320 319 322 326 326 326 326 327 329 330 330 330 330
295 295 294 296 297 295 295 298 294 295 293 295 295 298 299 303 309 312 313 314 317 317 322 321 320 319 320 321 321 327 327 326 329 329 330 331 331 332
301 304 307 306 304 300 302 303 300 296 290 290 290 294 299 307 316 318 322 325 328 329 327 325 323 324 323 322 322 324 325 328 329 332 331 331 331 333
302 302 303 306 308 307 307 304 301 295 290 287 288 295 300 302 305 310 311 317 320 324 330 332 330 328 324 324 325 325 327 328 331 332 333 332 333 334
303 300 299 300 301 300 301 301 303 299 294 291 285 285 291 296 304 311 313 315 315 317 320 328 331 331 329 326 326 328 329 329 330 331 333 332 333 335
298 297 297 296 295 294 297 294 295 296 295 291 287 287 291 294 302 311 314 315 317 320 321 325 328 329 330 331 331 329 330 331 332 332 334 334 333 336
292 294 294 292 292 292 291 291 292 294 297 292 286 286 285 294 301 307 314 320 324 326 327 329 330 329 327 324 330 334 330 332 333 333 335 335 334 335
289 292 292 291 290 290 290 292 292 290 289 285 283 280 281 285 294 303 311 318 323 327 329 332 333 333 331 330 331 333 335 332 333 333 335 337 337 338
286 287 289 289 289 288 289 288 285 281 278 279 280 278 279 282 293 300 308 316 321 326 326 329 334 340 338 338 334 333 334 339 336 334 337 338 340 343
285 284 285 287 287 285 285 284 282 280 276 277 279 278 280 284 289 295 304 312 320 324 328 333 338 339 337 335 333 334 335 338 338 340 340 339 342 342
286 285 286 286 285 285 283 280 277 275 273 275 275 278 279 283 290 296 304 314 321 324 328 332 339 340 338 337 335 335 336 338 340 341 345 350 349 344